Location: Ahausen
(50.4985°N, 8.2722°E)
Time: 02:18:06
(UTC+00:00)

CUTE 1.7 + AOD 2 - Pass Details

Date: 09 July 2022
Orbit: 589 x 608 km, 97.7° (Epoch: 07 August)

Event Time Altitude Azimuth Distance (km) Brightness Sun altitude
Rises 01:56:18 0° 33° (NNE) 2,844 ? -10.5°
Reaches altitude 10° 02:00:13 10° 70° (ENE) 1,929 ? -10.1°
Maximum altitude 02:01:21 11° 86° (E) 1,864 ? -10.0°
Drops below altitude 10° 02:02:30 10° 102° (ESE) 1,923 ? -9.9°
Sets 02:06:21 0° 139° (SE) 2,813 ? -9.6°
